| DS18B20 | SHTC3 | PZEM-004T | WiFi | ||||||||
|---|---|---|---|---|---|---|---|---|---|---|---|
| ID | Date d/m/Y & Time | data1 สูง | data2 ต่ำ | data3 นอก | temp pcb | hum pcb | Volt | Amp | Watt | rssi | Time |
| 16901 | 28/08/2026 23:13:17 | 31.6  | 31.5  | 28.9  | 32.6  | 66.1  | 223.7  | 0.04  | 4.5  | -62  | 23:13 |
| 16900 | 28/08/2026 23:08:33 | 31.6  | 31.6  | 29.0  | 32.5  | 65.9  | 221.7  | 0.04  | 4.5  | -62  | 23:08 |
| 16899 | 28/08/2026 23:03:50 | 31.6  | 31.6  | 29.3  | 32.6  | 66.0  | 222.9  | 0.04  | 4.5  | -61  | 23:03 |
| 16898 | 28/08/2026 22:59:07 | 31.6  | 31.6  | 29.1  | 32.6  | 65.8  | 223.8  | 0.04  | 4.5  | -62  | 22:59 |
| 16897 | 28/08/2026 22:54:24 | 31.6  | 31.6  | 29.2  | 32.5  | 65.9  | 226.5  | 0.04  | 4.5  | -61  | 22:54 |
| 16896 | 28/08/2026 22:49:40 | 31.7  | 31.6  | 29.1  | 32.6  | 65.8  | 226.9  | 0.04  | 4.5  | -63  | 22:49 |
| 16895 | 28/08/2026 22:44:57 | 31.7  | 31.6  | 29.0  | 32.6  | 65.8  | 224.6  | 0.04  | 4.5  | -62  | 22:44 |
| 16894 | 28/08/2026 22:40:14 | 31.7  | 31.7  | 29.1  | 32.8  | 65.7  | 225.9  | 0.04  | 4.5  | -63  | 22:40 |
| 16893 | 28/08/2026 22:35:31 | 31.8  | 31.7  | 29.2  | 32.7  | 65.8  | 223.9  | 0.04  | 4.5  | -64  | 22:35 |
| 16892 | 28/08/2026 22:30:47 | 31.8  | 31.8  | 29.3  | 32.9  | 65.7  | 226.2  | 0.04  | 4.5  | -62  | 22:30 |
| 16891 | 28/08/2026 22:26:03 | 31.8  | 31.8  | 29.2  | 32.7  | 65.5  | 224.9  | 0.04  | 4.5  | -62  | 22:26 |
| 16890 | 28/08/2026 22:21:20 | 31.8  | 31.8  | 29.4  | 33.0  | 65.6  | 224.6  | 0.04  | 4.5  | -62  | 22:21 |
| 16889 | 28/08/2026 22:16:37 | 31.9  | 31.8  | 29.5  | 32.8  | 65.5  | 226.8  | 0.04  | 4.5  | -62  | 22:16 |
| 16888 | 28/08/2026 22:11:53 | 31.9  | 31.8  | 29.5  | 32.9  | 65.4  | 225.3  | 0.04  | 4.5  | -62  | 22:11 |
| 16887 | 28/08/2026 22:07:09 | 31.9  | 31.9  | 29.7  | 33.0  | 65.6  | 226.8  | 0.04  | 4.5  | -62  | 22:07 |
| 16886 | 28/08/2026 22:02:26 | 31.9  | 31.9  | 29.7  | 32.8  | 65.4  | 225.6  | 0.04  | 4.5  | -62  | 22:02 |
| 16885 | 28/08/2026 21:57:42 | 31.9  | 31.9  | 29.7  | 33.0  | 65.5  | 227.0  | 0.04  | 4.5  | -62  | 21:57 |
| 16884 | 28/08/2026 21:52:59 | 32.0  | 31.9  | 29.7  | 33.0  | 65.5  | 228.7  | 0.04  | 4.6  | -62  | 21:52 |
| 16883 | 28/08/2026 21:48:16 | 32.0  | 31.9  | 29.6  | 32.9  | 65.3  | 227.3  | 0.04  | 4.5  | -62  | 21:48 |
| 16882 | 28/08/2026 21:43:32 | 32.0  | 31.9  | 29.8  | 33.1  | 65.3  | 228.9  | 0.04  | 4.5  | -61  | 21:43 |
| 16881 | 28/08/2026 21:38:49 | 32.1  | 32.0  | 29.9  | 33.1  | 65.2  | 227.9  | 0.04  | 4.5  | -62  | 21:38 |
| 16880 | 28/08/2026 21:34:06 | 32.1  | 32.0  | 29.9  | 33.1  | 65.3  | 227.1  | 0.04  | 4.5  | -62  | 21:34 |
| 16879 | 28/08/2026 21:29:22 | 32.1  | 32.1  | 29.9  | 33.2  | 65.3  | 228.6  | 0.04  | 4.5  | -62  | 21:29 |
| 16878 | 28/08/2026 21:24:38 | 32.1  | 32.1  | 29.9  | 33.0  | 65.3  | 227.0  | 0.04  | 4.5  | -62  | 21:24 |